User: anonymous   Login
Location: Downe
(51.3167°N, 0.0500°E)
Time: 02:01:22
(UTC+00:00)
Language:

FALCON 9 DEB - Orbit

View from above orbital plane
View from above orbital plane
View from above satellite
View from above satellite

Ground track
Ground track

The orbit data is extracted from the following two-line orbital elements,

1 44295U 19029BN  20021.59884376  .00000974  00000-0  31064-4 0  9998
2 44295  53.0031 103.2576 0008461 318.8322  41.2043 15.43079951 38669
Epoch (UTC): 21 January 2020 14:22:20
Eccentricity: 0.0008461
inclination: 53.0031°
perigee height: 431 km
apogee height: 443 km
right ascension of ascending node: 103.2576°
argument of perigee: 318.8322°
revolutions per day: 15.43079951
mean anomaly at epoch: 41.2043°
orbit number at epoch: 3866

The dashed part of the orbit path shows where the satellite is in the earth's shadow,  

DLR